{"data":{"norad_id":63716,"epoch":"2026-09-20T19:44:45.950784Z","epoch_age_seconds":124745,"freshness":"FRESH","line1":"1 63716U 25087V   26263.82275406  .00016372  00000+0  53798-3 0  9991","line2":"2 63716  53.1635  31.8878 0002293  39.6903 320.4266 15.31711557 79093","mean_motion":15.31711557,"eccentricity":0.0002293,"inclination_deg":53.1635,"raan_deg":31.8878,"arg_perigee_deg":39.6903,"mean_anomaly_deg":320.4266,"bstar":0.00053798,"rev_number":7909,"period_min":94.012478617082,"perigee_km":469.13510503116,"apogee_km":472.27598422212,"semimajor_km":6848.8425446266,"source":"CELESTRAK","updated_at":"2026-09-21T09:00:35.090668Z"}}